Simultaneous Nadir Overpasses (SNOs) Predictions

Prediction of SNOs between LANDSAT-8 and METOP-A Satellite Orbit:

Table of predicted SNOs for the next 14.0 days since TLE Epoch: 10/1/2016
Index Date (LANDSAT-8) Time (LANDSAT-8) Lat,Lon (LANDSAT-8) SZA (LANDSAT-8 ) Date (METOP-A) Time (METOP-A) Lat,Lon (METOP-A) SZA (METOP-A ) Distance(km) Time Diff (sec)
1 10/02/2016 03:36:49 -81.12, -14.19 92.86 10/02/2016 03:36:22 -81.12, -14.16 92.86 0.45 27
2 10/02/2016 04:26:14 81.15, 153.92 87.23 10/02/2016 04:27:01 81.15, 153.94 87.25 0.67 47
3 10/04/2016 23:11:05 -81.12, 52.10 91.77 10/04/2016 23:10:44 -81.12, 52.22 91.76 2.21 21
4 10/05/2016 00:00:30 81.14,-139.82 88.31 10/05/2016 00:01:23 81.15,-139.69 88.35 2.22 53
5 10/07/2016 18:45:21 -81.13, 118.70 90.66 10/07/2016 18:45:07 -81.12, 118.58 90.68 2.22 14
6 10/07/2016 19:34:46 81.15, -73.24 89.43 10/07/2016 19:35:46 81.15, -73.36 89.44 2.04 60
7 10/10/2016 14:19:37 -81.13,-174.76 89.56 10/10/2016 14:19:29 -81.13,-174.72 89.56 0.63 8
8 10/10/2016 15:09:02 81.16, -6.72 90.52 10/10/2016 15:10:08 81.15, -6.67 90.55 1.04 66
9 10/13/2016 09:04:43 80.66, 77.79 90.51 10/13/2016 09:03:29 80.83, 77.37 90.58 20.60 74
10 10/13/2016 09:53:52 -81.14,-108.27 88.48 10/13/2016 09:53:51 -81.13,-108.42 88.50 2.73 1




NCC Satellite Simultaneous Nadir Overpasses (SNOs) Prediction Service
